[[{"header":{"parameterUnit":"m.s-1","parameterCategory":1,"la1":30.2991,"la2":30.254,"lo1":-89.0895,"lo2":-89.0444,"dy":0.0017,"dx":0.0017,"nx":28,"ny":28,"refTime":"2024-08-20T09:00:00:Z","depth":0,"parameterNumber":2,"parameterNumberName":"U-component_of_WINDS"},"data":[0,0,0,0,0,0,0,0,0,0,0,0,0,0,0,0,0,0,0,0,0,0,0,0,0,0,0,0,0,0,0,0,0,0,0,0,0,0,0,0,0,0,0,0,0,0,0,0,0,0,0,0,0,0,0,0,0,0,-0.4663,-0.4663,0,-0.4646,-0.4646,-0.4646,-0.4642,-0.4642,-0.4642,-0.4643,-0.4622,-0.4621,-0.462,0,0,0,0,0,0,0,0,0,0,0,0,0,-0.469,-0.469,-0.4663,-0.4663,-0.4663,-0.4647,-0.4646,-0.4646,-0.4642,-0.4642,-0.4642,-0.4643,-0.4622,-0.4621,-0.462,0,0,0,0,0,0,0,0,0,0,0,0,0,-0.4676,-0.469,-0.4663,-0.4659,-0.4659,-0.4647,-0.4646,-0.4646,-0.4642,-0.4642,-0.4643,-0.4643,-0.4622,-0.4621,-0.462,-0.461,0,0,-0.4617,-0.4617,0,0,0,0,0,0,0,0,-0.4677,-0.4675,-0.466,-0.4659,-0.4659,-0.4647,-0.4648,-0.4634,-0.4642,-0.4648,-0.4643,-0.4643,-0.463,-0.4628,-0.4624,-0.4609,-0.4608,-0.4617,-0.4616,-0.4616,-0.4616,0,0,0,0,0,0,0,-0.4678,-0.4676,-0.4657,-0.466,-0.4659,-0.4657,-0.4656,-0.4645,-0.4638,-0.4648,-0.4647,-0.4646,-0.4629,-0.4625,-0.4624,-0.4608,-0.4617,-0.4616,-0.4615,-0.4615,-0.4585,-0.4585,0,0,0,0,0,0,-0.468,-0.4677,-0.4657,-0.4656,-0.4669,-0.4657,-0.4655,-0.465,-0.4638,-0.4636,-0.4646,-0.4646,-0.4627,-0.4625,-0.4623,-0.4611,-0.4616,-0.4615,-0.4614,-0.4585,-0.4585,-0.4585,0,0,0,0,0,0,-0.4681,-0.4679,-0.4658,-0.4667,-0.4664,-0.4656,-0.4651,-0.465,-0.4646,-0.4636,-0.4635,-0.4643,-0.4627,-0.4624,-0.4614,-0.4611,-0.4614,-0.4614,-0.4586,-0.4585,-0.4585,-0.4588,0,0,0,0,0,0,-0.4682,-0.4679,-0.4675,-0.4667,-0.4663,-0.465,-0.4651,-0.4649,-0.4645,-0.4645,-0.4634,-0.4632,-0.4627,-0.4615,-0.4613,-0.4609,-0.4613,-0.4586,-0.4585,-0.4585,-0.4588,-0.4587,-0.4587,0,0,0,0,0,-0.4683,-0.4676,-0.4675,-0.4673,-0.4659,-0.4649,-0.4648,-0.4643,-0.4644,-0.4641,-0.4635,-0.4632,-0.4612,-0.4614,-0.4611,-0.4607,-0.4586,-0.4585,-0.4585,-0.4588,-0.4587,-0.4587,0,0,0,0,0,0,-0.4682,-0.4674,-0.4674,-0.4664,-0.4658,-0.4649,-0.4644,-0.4642,-0.4635,-0.4635,-0.4628,-0.4626,-0.4616,-0.4611,-0.4614,-0.4598,-0.4599,-0.4598,-0.4602,-0.4601,-0.4601,-0.4602,-0.4612,0,0,0,0,0,-0.4682,-0.4675,-0.4668,-0.466,-0.4657,-0.4651,-0.4647,-0.4644,-0.4637,-0.4634,-0.4627,-0.462,-0.4612,-0.4606,-0.4598,-0.4587,-0.4585,-0.4583,-0.4583,-0.4583,-0.4582,-0.4577,-0.4576,-0.4583,-0.4583,-0.4583,0,0,-0.4679,-0.4674,-0.467,-0.466,-0.4655,-0.4648,-0.4649,-0.4641,-0.4636,-0.4632,-0.4623,-0.4618,-0.4609,-0.4599,-0.4594,-0.4594,-0.4579,-0.4582,-0.4582,-0.4581,-0.4576,-0.4576,-0.4575,-0.4583,-0.4583,-0.4583,0,0,-0.4671,-0.4666,-0.466,-0.4655,-0.4648,-0.4645,-0.4643,-0.4635,-0.4632,-0.4623,-0.462,-0.4614,-0.4599,-0.4594,-0.4589,-0.4581,-0.4579,-0.4578,-0.4577,-0.4572,-0.4572,-0.4571,-0.4569,-0.4568,-0.4578,-0.4578,-0.4578,0,-0.4668,-0.4659,-0.4656,-0.465,-0.4646,-0.4644,-0.4637,-0.4632,-0.4622,-0.4619,-0.462,-0.4604,-0.4597,-0.4586,-0.4585,-0.458,-0.4579,-0.4579,-0.4572,-0.4572,-0.4571,-0.4569,-0.4568,-0.4578,-0.4578,-0.4578,-0.4578,0,-0.4657,-0.465,-0.4646,-0.4639,-0.4634,-0.4627,-0.4623,-0.4618,-0.4616,-0.4613,-0.4604,-0.4596,-0.4588,-0.4585,-0.4582,-0.4574,-0.4574,-0.4574,-0.4574,-0.457,-0.4568,-0.4568,-0.4578,-0.4578,-0.4578,-0.4578,0,0,-0.4647,-0.464,-0.4638,-0.4635,-0.4628,-0.4623,-0.4616,-0.4609,-0.4606,-0.46,-0.4594,-0.4583,-0.4583,-0.4578,-0.4575,-0.4571,-0.4566,-0.457,-0.457,-0.457,-0.4558,-0.4558,-0.4558,-0.4565,-0.4565,-0.4564,-0.4559,0,-0.4639,-0.4628,-0.4626,-0.4617,-0.4611,-0.461,-0.4605,-0.4599,-0.4596,-0.4591,-0.4586,-0.4579,-0.4579,-0.4577,-0.4572,-0.4568,-0.4563,-0.4568,-0.4559,-0.4559,-0.4562,-0.4556,-0.4557,-0.4552,-0.4558,-0.4558,-0.4558,0,-0.4627,-0.4623,-0.4613,-0.4609,-0.4606,-0.4601,-0.4596,-0.459,-0.4585,-0.4583,-0.4578,-0.4576,-0.4569,-0.457,-0.4561,-0.4564,-0.456,-0.4558,-0.4557,-0.4556,-0.4558,-0.4556,-0.455,-0.4549,-0.4556,-0.4556,-0.4556,0,-0.4622,-0.4613,-0.4607,-0.4605,-0.4599,-0.4596,-0.4593,-0.4588,-0.4584,-0.4578,-0.4576,-0.4569,-0.4566,-0.4561,-0.4557,-0.4558,-0.4548,-0.4549,-0.4546,-0.4546,-0.4543,-0.4544,-0.4537,-0.4541,-0.4541,-0.4541,-0.4541,0,-0.4613,-0.4607,-0.4605,-0.4601,-0.4595,-0.4593,-0.4586,-0.4584,-0.4579,-0.4575,-0.4573,-0.4568,-0.4563,-0.4558,-0.4555,-0.4548,-0.4546,-0.4544,-0.4543,-0.4544,-0.4545,-0.4542,-0.4542,-0.4541,-0.4541,-0.4541,-0.4541,0,-0.4606,-0.4604,-0.4597,-0.4593,-0.4592,-0.4588,-0.4584,-0.458,-0.4577,-0.4572,-0.457,-0.4565,-0.4559,-0.4555,-0.4547,-0.4545,-0.4538,-0.4537,-0.454,-0.454,-0.4538,-0.4538,-0.4529,-0.4528,-0.4532,-0.4532,-0.4532,0,-0.46,-0.4597,-0.4593,-0.459,-0.4588,-0.4583,-0.458,-0.4578,-0.4575,-0.4569,-0.4566,-0.4561,-0.4556,-0.4546,-0.4542,-0.4536,-0.4535,-0.4532,-0.4534,-0.4536,-0.4536,-0.4536,-0.4536,-0.4532,-0.4532,-0.4532,-0.4532,0,-0.4591,-0.4591,-0.4587,-0.4584,-0.458,-0.4577,-0.4573,-0.4571,-0.4568,-0.4565,-0.456,-0.4556,-0.4549,-0.4544,-0.4538,-0.4534,-0.4533,-0.4532,-0.4531,-0.4532,-0.4534,-0.4534,-0.454,-0.4532,-0.4532,-0.4532,-0.4532,-0.4532,-0.4585,-0.4582,-0.4579,-0.4576,-0.4573,-0.457,-0.4567,-0.4565,-0.4561,-0.4556,-0.4555,-0.4549,-0.4545,-0.4537,-0.4534,-0.453,-0.453,-0.4528,-0.4528,-0.4528,-0.4528,-0.4535,-0.4528,-0.4528,-0.4528,-0.4528,-0.4528,0,-0.4576,-0.4575,-0.4572,-0.4568,-0.4565,-0.4566,-0.4562,-0.456,-0.4555,-0.4552,-0.4548,-0.4543,-0.4538,-0.4534,-0.4529,-0.4526,-0.4525,-0.4525,-0.4525,-0.4525,-0.4528,-0.4529,-0.4526,-0.4526,-0.4526,-0.4526,-0.4526,-0.4526,-0.4571,-0.4567,-0.4566,-0.4561,-0.4559,-0.4555,-0.4553,-0.4551,-0.4549,-0.4543,-0.454,-0.4538,-0.4534,-0.4529,-0.4525,-0.4524,-0.4522,-0.4522,-0.4521,-0.4524,-0.4524,-0.4524,-0.4526,-0.4521,-0.4521,-0.4518,-0.4518,-0.4518]},{"header":{"parameterUnit":"m.s-1","parameterCategory":1,"la1":30.2991,"la2":30.254,"lo1":-89.0895,"lo2":-89.0444,"dy":0.0017,"dx":0.0017,"nx":28,"ny":28,"refTime":"2024-08-20T09:00:00:Z","depth":0,"parameterNumber":3,"parameterNumberName":"V-component_of_WINDS"},"data":[0,0,0,0,0,0,0,0,0,0,0,0,0,0,0,0,0,0,0,0,0,0,0,0,0,0,0,0,0,0,0,0,0,0,0,0,0,0,0,0,0,0,0,0,0,0,0,0,0,0,0,0,0,0,0,0,0,0,-1.0133,-1.0134,0,-1.0227,-1.0228,-1.0229,-1.0266,-1.0266,-1.0265,-1.0265,-1.0361,-1.0364,-1.0366,0,0,0,0,0,0,0,0,0,0,0,0,0,-0.9986,-0.9988,-1.0133,-1.0134,-1.0135,-1.0226,-1.0228,-1.0229,-1.0266,-1.0266,-1.0265,-1.0265,-1.036,-1.0363,-1.0367,0,0,0,0,0,0,0,0,0,0,0,0,0,-1.0061,-0.9989,-1.0132,-1.0164,-1.0168,-1.0226,-1.0228,-1.0229,-1.0266,-1.0266,-1.0265,-1.0265,-1.0359,-1.0363,-1.0367,-1.04,0,0,-1.038,-1.0382,0,0,0,0,0,0,0,0,-1.0057,-1.0067,-1.0159,-1.0162,-1.0167,-1.0234,-1.0211,-1.0286,-1.0266,-1.0229,-1.0265,-1.0265,-1.0319,-1.0326,-1.0345,-1.0404,-1.0408,-1.038,-1.0383,-1.0384,-1.0386,0,0,0,0,0,0,0,-1.0052,-1.0063,-1.017,-1.016,-1.0165,-1.0174,-1.0185,-1.0225,-1.0275,-1.0232,-1.0235,-1.0246,-1.0321,-1.0341,-1.0347,-1.041,-1.038,-1.0384,-1.0386,-1.0388,-1.0502,-1.0503,0,0,0,0,0,0,-1.0041,-1.0058,-1.0167,-1.0173,-1.011,-1.0177,-1.0189,-1.0213,-1.0274,-1.0283,-1.0246,-1.0247,-1.0334,-1.0342,-1.0351,-1.0394,-1.0384,-1.0388,-1.0391,-1.0501,-1.0502,-1.0503,0,0,0,0,0,0,-1.0038,-1.0051,-1.0163,-1.0116,-1.0131,-1.018,-1.0207,-1.0215,-1.0235,-1.0285,-1.0294,-1.0257,-1.0334,-1.0345,-1.0388,-1.0398,-1.039,-1.0394,-1.0501,-1.0502,-1.0502,-1.0481,0,0,0,0,0,0,-1.0034,-1.0049,-1.0062,-1.0116,-1.0134,-1.0198,-1.0207,-1.0217,-1.0242,-1.0244,-1.0297,-1.0306,-1.0334,-1.0381,-1.0392,-1.0404,-1.0397,-1.05,-1.0501,-1.0502,-1.0481,-1.0481,-1.0481,0,0,0,0,0,-1.0028,-1.0052,-1.0063,-1.0076,-1.0151,-1.0199,-1.0209,-1.0241,-1.0242,-1.0256,-1.0288,-1.0304,-1.0395,-1.0385,-1.0397,-1.0411,-1.05,-1.0501,-1.0502,-1.0481,-1.0481,-1.0481,0,0,0,0,0,0,-0.9998,-1.006,-1.0072,-1.0114,-1.0151,-1.0205,-1.0223,-1.024,-1.0277,-1.0278,-1.0316,-1.0328,-1.0368,-1.0393,-1.0381,-1.0446,-1.0449,-1.0452,-1.0428,-1.0429,-1.0429,-1.0422,-1.0401,0,0,0,0,0,-0.9996,-1.003,-1.0082,-1.0114,-1.0132,-1.0174,-1.0196,-1.0218,-1.0258,-1.0273,-1.0309,-1.0346,-1.0384,-1.0407,-1.0444,-1.0484,-1.0497,-1.0499,-1.0499,-1.0499,-1.0502,-1.0527,-1.0529,-1.0507,-1.0507,-1.0507,0,0,-0.9993,-1.0031,-1.005,-1.0109,-1.014,-1.0174,-1.0187,-1.0223,-1.0249,-1.0279,-1.0322,-1.0349,-1.0393,-1.0435,-1.0455,-1.0458,-1.0511,-1.0501,-1.05,-1.0504,-1.0528,-1.053,-1.0532,-1.0507,-1.0507,-1.0507,0,0,-1.0005,-1.0036,-1.0067,-1.0098,-1.0145,-1.0173,-1.018,-1.0232,-1.0251,-1.0295,-1.0318,-1.0349,-1.0412,-1.0443,-1.0467,-1.0491,-1.0507,-1.0501,-1.0502,-1.0525,-1.0527,-1.0528,-1.0538,-1.0541,-1.0504,-1.0504,-1.0504,0,-0.9995,-1.0047,-1.0081,-1.0115,-1.0141,-1.017,-1.0202,-1.023,-1.0286,-1.0303,-1.0305,-1.0385,-1.0417,-1.0467,-1.0473,-1.0491,-1.0501,-1.0496,-1.0524,-1.0526,-1.0528,-1.0538,-1.0541,-1.0503,-1.0503,-1.0503,-1.0503,0,-1.0033,-1.0069,-1.0089,-1.0143,-1.0171,-1.0203,-1.0242,-1.0266,-1.0285,-1.0313,-1.0357,-1.0396,-1.0442,-1.0455,-1.0474,-1.0508,-1.0508,-1.0516,-1.052,-1.0529,-1.0538,-1.0542,-1.0502,-1.0502,-1.0503,-1.0503,0,0,-1.003,-1.0102,-1.0108,-1.0134,-1.0187,-1.0216,-1.025,-1.0295,-1.0315,-1.0353,-1.0383,-1.0436,-1.0444,-1.0471,-1.0493,-1.0513,-1.0531,-1.0519,-1.0521,-1.0521,-1.0572,-1.0567,-1.0571,-1.0542,-1.0542,-1.0543,-1.0569,0,-1.005,-1.0113,-1.0144,-1.0193,-1.0227,-1.0255,-1.0285,-1.0321,-1.0348,-1.0381,-1.041,-1.0447,-1.0454,-1.0471,-1.0492,-1.0524,-1.0542,-1.0523,-1.0571,-1.0572,-1.0561,-1.0576,-1.057,-1.0593,-1.0573,-1.0574,-1.0574,0,-1.0082,-1.012,-1.0173,-1.0223,-1.0239,-1.0265,-1.0309,-1.034,-1.0382,-1.04,-1.043,-1.0452,-1.0489,-1.0489,-1.0541,-1.0527,-1.0549,-1.0567,-1.0569,-1.0576,-1.0575,-1.0585,-1.0601,-1.0605,-1.058,-1.058,-1.0579,0,-1.0075,-1.0139,-1.018,-1.02,-1.026,-1.0278,-1.0303,-1.0345,-1.037,-1.0408,-1.0425,-1.0467,-1.049,-1.0522,-1.0555,-1.0551,-1.0604,-1.0606,-1.0621,-1.062,-1.0632,-1.0631,-1.0654,-1.0643,-1.0643,-1.0643,-1.0643,0,-1.0095,-1.0127,-1.0178,-1.0203,-1.0239,-1.0274,-1.031,-1.0337,-1.0374,-1.0405,-1.043,-1.0459,-1.05,-1.0533,-1.0559,-1.0599,-1.0609,-1.0625,-1.0632,-1.0624,-1.0622,-1.0639,-1.0639,-1.0644,-1.0644,-1.0644,-1.0643,0,-1.0095,-1.013,-1.0176,-1.0229,-1.0243,-1.0267,-1.0312,-1.0338,-1.0365,-1.0404,-1.0416,-1.0459,-1.05,-1.0536,-1.0589,-1.0607,-1.0649,-1.0656,-1.0635,-1.0639,-1.0652,-1.0651,-1.0688,-1.0696,-1.0678,-1.0678,-1.0678,0,-1.0106,-1.0131,-1.0187,-1.0209,-1.0235,-1.0271,-1.0297,-1.0332,-1.0358,-1.0408,-1.0427,-1.047,-1.0507,-1.0571,-1.0607,-1.0649,-1.0658,-1.0668,-1.0665,-1.0656,-1.066,-1.0659,-1.0662,-1.0669,-1.0669,-1.0669,-1.0669,0,-1.0123,-1.0139,-1.0176,-1.0219,-1.0249,-1.0284,-1.032,-1.0337,-1.038,-1.0407,-1.045,-1.0478,-1.0533,-1.0576,-1.0622,-1.0648,-1.0666,-1.067,-1.0676,-1.0669,-1.0656,-1.0665,-1.0637,-1.0669,-1.0669,-1.0669,-1.0669,-1.0669,-1.013,-1.0154,-1.0197,-1.0237,-1.0268,-1.0301,-1.0328,-1.0359,-1.0395,-1.0443,-1.0461,-1.0505,-1.0547,-1.061,-1.0636,-1.0671,-1.0674,-1.0682,-1.0684,-1.0686,-1.0686,-1.0649,-1.0679,-1.0679,-1.0679,-1.0679,-1.0679,0,-1.0149,-1.0178,-1.0214,-1.0264,-1.0296,-1.031,-1.035,-1.0376,-1.0414,-1.0451,-1.0487,-1.0536,-1.0577,-1.0617,-1.0661,-1.0681,-1.069,-1.0691,-1.0691,-1.0697,-1.068,-1.0671,-1.0683,-1.0683,-1.0683,-1.0683,-1.0683,-1.0683,-1.0163,-1.0205,-1.0226,-1.0284,-1.0312,-1.0356,-1.0378,-1.0409,-1.0439,-1.0493,-1.0528,-1.0553,-1.0592,-1.0638,-1.0677,-1.0688,-1.0703,-1.0703,-1.0716,-1.0699,-1.0698,-1.0698,-1.069,-1.0705,-1.0705,-1.073,-1.0731,-1.0731]}]]